Welcome to the New NWS' Forecast!
Most changes are behind the scenes, but click here for differences you might notice.
Latest weather observations around

Bishop, Bishop Airport (KBIH)

Using English Units (Switch to International System of Units)
Date/ Time (PST) Wind (mph) Vis. (mi) Weather Sky Cond. Temp (°F) Rel. Humidity Wind Chill (°F) Heat Index (°F) Pressure Precip. (in)
Air Dwpt 6 hour Altimeter (inHg) Sea level (inHg) 1 hr 3 hr 6 hr
Max Min
Nov 21 10:56 Calm 10 Clear CLR 65 38     37%       30.27      
Nov 21 08:56 NNW 3 10 Clear CLR 53 39     59%     30.35 30.3      
Nov 21 07:56 NE 3 10 Clear CLR 45 36     71% 44   30.34 30.3      
Nov 21 06:56 NNW 7 10 Clear CLR 37 33     85% 32   30.31 30.29      
Nov 21 05:56 WNW 8 10 Clear CLR 39 33     79% 33   30.29 30.25      
Nov 21 04:56 WNW 7 10 Clear CLR 39 33     79% 34   30.27 30.24      
Nov 21 03:56 WNW 6 10 Clear CLR 37 32     82% 32   30.27 30.22      
Nov 21 02:56 NE 8 10 Clear CLR 38 32     79% 32   30.26 30.2      
Nov 21 01:56 NNE 3 10 Clear CLR 39 33     79% 37   30.27 30.21      
Nov 21 00:56 N 7 9 Clear CLR 39 33     79% 34   30.24 30.18      
Nov 20 23:56 NW 8 5 Haze CLR 43 33     68% 38   30.23 30.17      
Nov 20 22:56 NNW 6 10 Clear CLR 41 33     73% 37   30.23 30.17      
Nov 20 21:56 W 5 10 Mostly Clear FEW120 43 33     68% 40   30.23 30.17      
Nov 20 20:56 NNE 6 10 Clear CLR 43 32     65% 39   30.21 30.17      
Nov 20 19:56   8 Clear CLR 47 34     60%     30.17 30.14      
Nov 20 18:56 NNW 5 10 Partly Cloudy SCT100 48 33     56% 46   30.16 30.14      
Nov 20 17:56 S 5 10 Mostly Clear FEW100 53 33     46%     30.13 30.09      
Nov 20 16:56 SSE 6 10 Clear CLR 55 32     41%     30.11 30.07      
Nov 20 15:56 SSE 6 10 Mostly Clear FEW100 63 30     29%     30.09 30.03      
Nov 20 14:56 SSE 7 10 Clear CLR 65 30     27%     30.08 30.02      
Nov 20 13:56 SSE 6 10 Clear CLR 66 26     22%     30.07 30.01      
Nov 20 12:56 SSE 5 10 Clear CLR 64 29     27%     30.08 30.03      
Nov 20 11:56 3 10 Clear CLR 62 27     26%     30.08 30.03      
Nov 20 10:56 Calm 10 Clear CLR 59 28     31%     30.12 30.07      
Nov 20 09:56 Calm 10 Clear CLR 56 29     35%     30.13 30.09      
Nov 20 08:56 Calm 10 Clear CLR 50 33     52%     30.14 30.11      
Nov 20 07:56 Calm 10 Clear CLR 40 33     76%     30.12 30.11      
Nov 20 06:56 N 5 10 Clear CLR 34 31     88% 30   30.1 30.09      
Nov 20 05:56 WNW 5 10 Cloudy OVC100 40 31     70% 37   30.09 30.07      
Nov 20 04:56 Calm 10 Mostly Cloudy BKN110 36 31     82%     30.08 30.05      
Nov 20 03:56 W 3 10 Mostly Cloudy BKN110 37 30     76% 35   30.09 30.05      
Nov 20 02:56 WNW 5 10 Mostly Clear FEW110 37 30     76% 33   30.1 30.06      
Nov 20 01:56 WNW 3 10 Clear CLR 35 30     82% 32   30.11 30.06      
Nov 20 00:56 NNW 6 10 Clear CLR 34 30     85% 29   30.1 30.06      
Nov 19 23:56 WNW 6 7 Clear CLR 35 30     82% 30   30.11 30.07      
Nov 19 22:56 Calm 10 Clear CLR 34 29     82%     30.11 30.08      
Nov 19 21:56 WNW 3 8 Clear CLR 38 30     73% 36   30.11 30.08      
Nov 19 20:56 NNW 5 8 Clear CLR 38 31     76% 34   30.12 30.1      
Nov 19 19:56 NNW 6 4 Haze CLR 37 31     78% 32   30.1 30.11      
Nov 19 18:56 WNW 5 9 Clear CLR 41 31     67% 38   30.1 30.12      
Nov 19 17:56 Calm 10 Clear CLR 42 31     64%     30.1 30.11      
Nov 19 16:56 S 6 10 Clear CLR 50 30     46% 48   30.08 30.08      
Nov 19 15:56 S 3 10 Clear CLR 56 29     35%     30.08 30.06      
Nov 19 14:56 SSE 6 10 Clear CLR 57 27     31%     30.07 30.04      
Nov 19 13:56 SSW 6 10 Clear CLR 58 25     28%     30.09 30.06      
Nov 19 12:56 Calm 10 Clear CLR 57 25     29%     30.11 30.08      
Nov 19 11:56 5 10 Clear CLR 55 24     30%     30.13 30.1      
Nov 19 10:56 Calm 10 Clear CLR 53 24     32%     30.17 30.14      
Nov 19 09:56 Calm 10 Clear CLR 48 27     44%     30.21 30.19      
Nov 19 08:56 NNW 5 10 Clear CLR 41 28     60% 38   30.22 30.22      
Nov 19 07:56 N 5 10 Clear CLR 33 27     78% 29   30.23 30.24      
Nov 19 06:56 NNW 5 10 Clear CLR 25 22     88% 19   30.22 30.25      
Nov 19 05:56 NNW 3 10 Clear CLR 25 22     88% 21   30.22 30.23      
Nov 19 04:56 N 7 10 Clear CLR 25 23     92% 17   30.22 30.22      
Nov 19 03:56 N 8 10 Clear CLR 25 23     92% 16   30.22 30.2      
Nov 19 02:56 N 7 10 Clear CLR 28 25     88% 21   30.22 30.2      
Nov 19 01:56 N 6 10 Clear CLR 29 26     89% 23   30.22 30.2      
Nov 19 00:56 NNW 6 10 Clear CLR 31 27     85% 25   30.24 30.22      
Nov 18 23:56 NNW 7 10 Clear CLR 34 28     79% 28   30.25 30.22      
Nov 18 22:56 NNW 3 10 Clear CLR 32 27     81% 29   30.26 30.24      
Nov 18 21:56 N 3 10 Clear CLR 33 29     85% 30   30.26 30.25      
Nov 18 20:56 NW 8 10 Clear CLR 34 29     82% 27     30.25      
Nov 18 19:56 NW 7 10 Clear CLR 36 31     82% 30   30.25 30.25      
Nov 18 18:56 NW 6 10 Clear CLR 37 29     72% 32   30.24 30.27      
Nov 18 17:56 Calm 10 Clear CLR 44 30     58%     30.23 30.24      
Nov 18 16:56 S 5 10 Clear CLR 47 30     52% 45   30.23 30.22      
Nov 18 15:56 SSE 5 10 Clear CLR 54 24     31%       30.19      
Nov 18 14:56 SSE 3 10 Clear CLR 56 23     28%     30.23 30.19      
Nov 18 13:56 3 10 Clear CLR 56 23     28%     30.24 30.21      
Nov 18 12:56 S 6 10 Clear CLR 55 21     26%     30.27 30.24      
Nov 18 11:56 Calm 10 Clear CLR 52 21     29%     30.29 30.26      
Nov 18 10:56 Calm 10 Clear CLR 50 25     37%     30.33 30.29      
Jun 12 00:56   10 Clear CLR 47 20     34%     29.84 29.73      
Jun 11 19:56   10 Clear CLR 56 8     14%     29.77 29.67      
Jun 11 18:56   10 Clear CLR 59 7     12%     29.78 29.69      
Jun 11 13:56   10 Clear CLR 75 13     9%   73 29.65 29.54      
Notice The following observation data may not be complete
Jun 11 06:56 3 10 Clear CLR   32      %     29.69 29.55      
Notice The following observation data may not be complete
Jun 11 05:56 NNE 5 10 Clear CLR   28      %       29.56      
Jun 10 23:56 W 7 10 Clear   62 28     27%       29.56      
Jun 10 19:56   10 Clear CLR 74 23     15%   72 29.68 29.54      
Jun 10 16:56 W 11 10 Clear CLR 88        %     29.65 29.51      
Jun 10 08:56 3 10 Clear CLR 70 31     23%       29.63      
Jun 10 04:56 WNW 6 10 Clear CLR 51 32     48%     29.75 29.61      
Jun 10 02:56 NNW 6 10 Clear CLR 55 32     41%     29.77 29.63      
Jun 09 22:56 N 9 10 Clear CLR 67 31     26%     29.78 29.64      
Jun 09 15:56   10 Clear CLR 91 25     9%   86 29.68 29.53      
Jun 09 10:56 SSE 6 10 Clear CLR 79 34     20%   77 29.82 29.68      
Jun 09 09:56 NW 5 10 Clear CLR 77 37     24%   76 29.84 29.7      
Jun 09 00:56 N 14 10 Clear   62 36     38%     29.88 29.73      
Notice The following observation data may not be complete
Jun 08 08:56   10 Clear CLR          %              
Jun 07 14:56 SSE 21 10 Clear and Windy CLR 96        %     29.85 29.7      
Jun 06 10:56 N 5 10 Clear CLR 87 34     15%   84   29.82      
Jun 05 21:56 N 5 10 Clear CLR 75 33     22%   73   29.76      
Jun 05 18:56 S 10 10 Clear CLR 90 30     12%   86   29.71      
Jun 05 17:56 SSW 7 10 Clear CLR 92 27     10%   87   29.71      
Jun 05 12:56 WNW 6 10 Clear CLR 88 31     13%   84   29.78